Simultaneous Nadir Overpasses (SNOs) Predictions

Prediction of SNOs between METOP-A and TERRA Satellite Orbit:

Table of predicted SNOs for the next 14.0 days since TLE Epoch: 7/6/2019
Index Date (METOP-A) Time (METOP-A) Lat,Lon (METOP-A) SZA (METOP-A ) Date (TERRA) Time (TERRA) Lat,Lon (TERRA) SZA (TERRA ) Distance(km) Time Diff (sec)
1 07/08/2019 09:32:44 81.45, 86.74 62.01 07/08/2019 09:33:41 81.45, 86.76 62.04 0.28 57
2 07/08/2019 10:23:24 -81.45,-105.73 117.97 07/08/2019 10:23:08 -81.45,-105.67 117.97 1.02 16
3 07/11/2019 05:07:07 81.45, 153.38 62.37 07/11/2019 05:07:55 81.46, 153.29 62.38 1.70 48
4 07/11/2019 05:57:47 -81.45, -39.06 117.61 07/11/2019 05:57:22 -81.45, -39.11 117.62 1.26 25
5 07/14/2019 00:41:31 81.45,-140.40 62.73 07/14/2019 00:42:09 81.46,-140.22 62.77 3.12 38
6 07/14/2019 01:32:11 -81.45, 27.20 117.24 07/14/2019 01:31:37 -81.44, 27.02 117.29 3.11 34
7 07/16/2019 20:15:54 81.45, -74.19 63.13 07/16/2019 20:16:23 81.44, -74.17 63.14 1.24 29
8 07/16/2019 21:06:34 -81.45, 93.44 116.83 07/16/2019 21:05:50 -81.44, 93.48 116.85 1.00 44
9 07/19/2019 15:50:17 81.45, -7.60 63.64 07/19/2019 15:50:37 81.44, -7.78 63.62 3.16 20




NCC Satellite Simultaneous Nadir Overpasses (SNOs) Prediction Service
